Home   Weather   Marengo   Past weeks

Flag for USA Past Weather in Marengo, Indiana, USA — Yesterday and Last 2 Weeks

Now
34 °F

Passing clouds.


Feels Like: 27 °F
Forecast: 23 / 31 °F
Wind: 9 mph from Northwest

Location: Bowling Green-Warren County Regional Airport

Current Time: Dec 8, 2016 at 11:28:46 am

Latest Report: Dec 8, 2016 at 10:53 am


Visibility: 10 mi

Pressure: 30.45 "Hg

Humidity: 56%

Dew Point: 20 °F

Location of MarengoLocation

Past Weather in Marengo — Graph

°F

Marengo Temperature Yesterday

Maximum temperature yesterday: 49 °F (at 3:53 pm)
Minimum temperature yesterday: 32 °F (at 6:57 am)
Average temperature yesterday: 40 °F

High & Low Weather Summary for the Past Weeks

 TemperatureHumidityPressure
High68 °F (Nov 23, 12:53 pm)97% (Nov 24, 5:53 am)30.47 "Hg (Nov 24, 5:53 am)
Low23 °F (Nov 27, 5:53 am)16% (Nov 23, 11:53 am)29.37 "Hg (Nov 28, 6:53 pm)
Average46 °F74%30.08 "Hg
* Reported Nov 23 9:53 am — Dec 8 9:53 am, Marengo, Weather by CustomWeather, © 2016

Note: Actual official high and low records may vary slightly from our data, if they occured in-between our weather recording intervals... More about our weather records

Advertising

Marengo Weather History for the Previous 24 Hours

Scroll right to see more
 ConditionsComfort  
Time TempWeatherWind HumidityBarometerVisibility
9:53 am
Thu, Dec 8
32 °FSunny.9 mph59%30.42 "Hg10 mi
8:53 am32 °FSunny.8 mph64%30.39 "Hg10 mi
7:53 am31 °FSunny.5 mph67%30.37 "Hg10 mi
6:53 am32 °FScattered clouds.3 mph66%30.34 "Hg10 mi
5:53 am33 °FPassing clouds.7 mph61%30.34 "Hg10 mi
4:53 am34 °FClear.7 mph59%30.31 "Hg10 mi
3:53 am35 °FOvercast.6 mph56%30.30 "Hg10 mi
2:53 am36 °FMostly cloudy.9 mph62%30.29 "Hg10 mi
1:53 am36 °FOvercast.8 mph62%30.26 "Hg10 mi
12:53 am37 °FOvercast.7 mph57%30.24 "Hg10 mi
11:53 pm
Wed, Dec 7
37 °FOvercast.5 mph57%30.24 "Hg10 mi
10:53 pm37 °FOvercast.6 mph54%30.23 "Hg10 mi
9:53 pm39 °FClear.6 mph53%30.22 "Hg10 mi
8:53 pm39 °FPassing clouds.6 mph55%30.22 "Hg10 mi
7:53 pm40 °FClear.6 mph55%30.21 "Hg10 mi
6:53 pm42 °FClear.8 mph53%30.20 "Hg10 mi
5:53 pm44 °FClear.5 mph41%30.17 "Hg10 mi
4:53 pm47 °FClear.N/A34%30.15 "Hg10 mi
3:53 pm49 °FSunny.N/A36%30.15 "Hg10 mi
2:53 pm48 °FSunny.6 mph43%30.14 "Hg10 mi
1:53 pm48 °FSunny.5 mph46%30.14 "Hg10 mi
12:53 pm46 °FPassing clouds.5 mph56%30.16 "Hg10 mi
11:53 am44 °FScattered clouds.6 mph65%30.19 "Hg10 mi
Weather by CustomWeather, © 2016

See weather overviewHow to use our weather pages